DECAYED

STARLINK-1150, 45067 (Decayed)

Orbit data source: Space-Track

STARLINK-1150, 45067 was a payload satellite owned by SpaceX/Seattle (US) in LEO that was launched on Wed, 29 Jan 2020 UTC via an FALCON 9 launch vehicle from the Air Force Eastern Test Range (AFETR). Payload-class satellites include a variety of spacecraft equipped with specific instruments for various scientific and technological missions. These include communications satellites like Starlink; space stations such as the ISS; scientific satellites like the Hubble; Earth observation satellites from companies like Planet Labs, Umbra, and HawkEye 360; GPS; miniature CubeSats for education and research; and military/defense satellites.

Not visible in the next 10 days
Identifier
45067, 2020-006Z
Orbit
Decayed
Country
Flag of USUS
Related business
Manufacturer
SpaceX/Seattle
Mission
Decayed Commercial Communications
Bus & Motor
STARLINK, Unknown motor
Mass
260 kg wet, ~248 kg dry
Launch date (UTC)
2020-01-29 (6 years ago)
Launch vehicle
FALCON 9
Launch site
Air Force Eastern Test Range (AFETR)
Object type
Payload
Rocket body
Debris
Shape & HBR
Box + 1 Pan, 10.1 m
Radar Cross Section
13.562 m², Large (>1 m²)

Expand to show TLE details & history
Last TLE update: 1 month ago

TLE from 1 month ago
0 STARLINK-1150
1 45067U 20006Z   25279.03451214  .07712961  12243-4  75374-3 0  9993
2 45067  53.0298 175.6223 0006457 240.8487 119.1912 16.37461882314347
Epoch: 2025-10-06T00:49Z
TLE epoch observation values (Epoch: 2025-10-06T00:49:41.848Z)
Latitude
-0.00008°
Longitude
148.25432°
Altitude
175.554 km
Speed
7.801 km/s
True Right ascension
11h 42m 29s
True Declination
0° 00' 00"
Sunlit
Object was in daylight at epoch
Visualization orbit readout
Latitude
Unknown
Longitude
Unknown
Altitude
Unknown
Speed
Unknown
Apparent Right ascension
Unknown
Apparent Declination
Unknown
Sunlit
N/A
Visualization observer readout
Local Sidereal Time
10:38:25
Azimuth
Unknown
Elevation
Unknown
Doppler factor
Unknown
Orbital elements
Apogee altitude
177.083 km
Perigee altitude
168.623 km
Semi-major axis
6,550.99 km
Eccentricity
0.00065
Inclination
53.0298°
RAAN
175.6223°
Arg. of periapsis
240.8487°
True anomaly
119.25577°
Mean anomaly
119.1912°
Eccentric anomaly
119.22349°
Mean motion
4.09339 °/min
Orbital period
87.95 mins
BSTAR
0.00075374
Loading maneuver chart data...
Computing Atmospheric mass density...
Loading historical data...
Loading historical data...
Loading historical data...
Loading historical data...
Loading historical data...
Loading historical data...
Loading historical data...

Documentation

Showing up to 5 results
|